Weather in Bolshoe Soldatskoe

Russia / Kursk Oblast     51°20′00″N   35°31′08″E
temp.,
°C
wind,
m/s
gust,
m/s
humid.,
%
clouds,
%
prec.,
mm/h
press.,
hPa
HPBL,
m
28 july, wed
wed2800:00+20s224451 0.0 101924
03:00+19sse224798 0.0 101822
06:00+18se3651100 0.0 1017104
09:00+21sse365278 0.0 1016189
12:00+29sw4636100 0.1 10151619
15:00+25nne2250100 0.1 101370
18:00+23ese366894 0.9 1012234
21:00+18s22945 2.5 101329
29 july, thu
thu2900:00+18sw34944 0.8 101263
03:00+18w33925 0.8 101244
06:00+18w22885 0.0 101123
09:00+24sw237018 0.0 1012387
12:00+29w45445 0.0 10112118
15:00+31wnw463470 0.0 10092648
18:00+31nw244073 0.0 10082314
21:00+26sse114879 0.0 100814
30 july, fri
fri3000:00+23ssw225235 0.0 100823
03:00+19sw357684 0.0 100882
06:00+19sw357916 0.1 1008123
09:00+23wsw337698 0.4 1008534
12:00+27wnw345881 0.0 10081384
15:00+27nw455492 0.0 10081472
18:00+25nnw36655 0.0 1008373
21:00+22ne227094 0.0 100914
31 july, sat
sat3100:00+22nw2267100 0.0 101021
03:00+19nnw22793 0.0 101011
06:00+18wnw11765 0.0 101111
09:00+25sw23490 0.0 1011446
12:00+29wsw45375 0.0 10102141
15:00+30wnw44315 0.0 10102435
18:00+30nw23373 0.0 10101795
21:00+23ese334967 0.0 101016
1 august, sun
sun100:00+21se35575 0.0 101168
03:00+19sse34610 0.0 101051
06:00+19sse35640 0.0 101091
09:00+27ssw59433 0.0 1009615
12:00+31sw6834100 0.0 10092126
15:00+30w7839100 0.0 10091718
18:00+30w464556 0.0 10081940
21:00+23n33660 0.3 100922